[[{"header":{"parameterUnit":"m.s-1","parameterCategory":2,"la1":30.2991,"la2":30.254,"lo1":-89.0895,"lo2":-89.0444,"dy":0.0017,"dx":0.0017,"nx":28,"ny":28,"refTime":"2023-09-25T03:00:00:Z","depth":"0","parameterNumber":2,"parameterNumberName":"U-component_of_CURRENTS"},"data":[0,0,0,0,0,0,0,0,0,0,0,0,0,0,0,0,0,0,0,0,0,0,0,0,0,0,0,0,0,0,0,0,0,0,0,0,0,0,0,0,0,0,0,0,0,0,0,0,0,0,0,0,0,0,0,0,0,0,0.2107,0.2108,0,0.2161,0.2162,0.2162,0.2181,0.2181,0.2181,0.2181,0.2198,0.2199,0.2199,0,0,0,0,0,0,0,0,0,0,0,0,0,0.1995,0.1997,0.2107,0.2108,0.2109,0.2161,0.2162,0.2162,0.2181,0.2181,0.2181,0.2181,0.2198,0.2199,0.2199,0,0,0,0,0,0,0,0,0,0,0,0,0,0.2043,0.1997,0.2107,0.2126,0.2129,0.2161,0.2162,0.2162,0.2181,0.2181,0.2181,0.2181,0.2198,0.2199,0.2199,0.2203,0,0,0.2201,0.2202,0,0,0,0,0,0,0,0,0.204,0.2047,0.2122,0.2125,0.2128,0.2167,0.2129,0.2175,0.2181,0.2158,0.2181,0.2181,0.2186,0.2188,0.2195,0.2203,0.2204,0.2202,0.2202,0.2202,0.2202,0,0,0,0,0,0,0,0.2037,0.2045,0.2126,0.2123,0.2127,0.2124,0.2131,0.2137,0.2168,0.216,0.2162,0.2173,0.2187,0.2194,0.2195,0.2204,0.2201,0.2202,0.2202,0.2203,0.2221,0.2221,0,0,0,0,0,0,0.2037,0.2042,0.2124,0.2128,0.2086,0.2126,0.2134,0.2152,0.2169,0.2173,0.2172,0.2173,0.2193,0.2194,0.2196,0.2207,0.2202,0.2203,0.2203,0.2221,0.2221,0.2221,0,0,0,0,0,0,0.2035,0.2045,0.2122,0.2087,0.2097,0.2129,0.2148,0.2153,0.2163,0.218,0.2182,0.2178,0.2193,0.2195,0.2207,0.2208,0.2203,0.2204,0.2221,0.2221,0.2221,0.2226,0,0,0,0,0,0,0.2032,0.2043,0.2052,0.2088,0.2099,0.2143,0.2149,0.2154,0.217,0.2172,0.2185,0.2187,0.2193,0.2206,0.2207,0.2209,0.2204,0.2221,0.2221,0.2221,0.2226,0.2226,0.2227,0,0,0,0,0,0.2027,0.2041,0.2052,0.2062,0.2112,0.2144,0.2149,0.2169,0.217,0.2177,0.2187,0.2186,0.2208,0.2207,0.2208,0.221,0.222,0.2221,0.2221,0.2225,0.2226,0.2227,0,0,0,0,0,0,0.1992,0.2046,0.2058,0.2086,0.2113,0.2148,0.2157,0.2169,0.2182,0.2182,0.2191,0.2194,0.2202,0.2206,0.2204,0.2215,0.2212,0.2213,0.2215,0.2216,0.2216,0.2214,0.2205,0,0,0,0,0,0.199,0.2017,0.206,0.2081,0.2096,0.2125,0.2138,0.2154,0.2174,0.218,0.219,0.2198,0.2204,0.221,0.2216,0.2225,0.2272,0.2226,0.2226,0.2227,0.2226,0.2254,0.2258,0.2222,0.2222,0.2222,0,0,0.1982,0.2014,0.2029,0.2075,0.2097,0.2122,0.2132,0.2157,0.2173,0.2179,0.2195,0.2199,0.2206,0.2216,0.222,0.2221,0.2282,0.2227,0.2227,0.2226,0.2255,0.2259,0.2262,0.2222,0.2222,0.2222,0,0,0.1984,0.2009,0.2034,0.2059,0.2099,0.2118,0.2125,0.2161,0.217,0.2188,0.2194,0.2198,0.2213,0.2218,0.2222,0.2227,0.228,0.2229,0.2235,0.2262,0.2266,0.2269,0.2425,0.2441,0.2233,0.2233,0.2233,0,0.1971,0.2014,0.2043,0.2072,0.2092,0.2116,0.2141,0.2154,0.2186,0.219,0.2193,0.221,0.2212,0.2224,0.2226,0.2228,0.2296,0.2232,0.2264,0.2267,0.227,0.2428,0.2446,0.2233,0.2233,0.2233,0.2233,0,0.2001,0.2028,0.2043,0.209,0.2109,0.2135,0.2162,0.2172,0.2182,0.2195,0.2205,0.2214,0.2225,0.2224,0.2228,0.2248,0.2314,0.226,0.2264,0.2274,0.2441,0.2461,0.2233,0.2233,0.2233,0.2233,0,0,0.1998,0.2054,0.2061,0.2074,0.2123,0.2137,0.2159,0.2183,0.2191,0.2207,0.2225,0.2224,0.2229,0.2234,0.224,0.2259,0.2367,0.2272,0.2274,0.2434,0.2536,0.2732,0.2773,0.2313,0.2314,0.2315,0.2678,0,0.2015,0.2059,0.2089,0.2117,0.2138,0.2159,0.2175,0.2191,0.2208,0.2227,0.223,0.2253,0.2235,0.2252,0.2264,0.2338,0.2402,0.228,0.2496,0.2505,0.2679,0.2793,0.2772,0.3104,0.2697,0.27,0.2703,0,0.2044,0.2067,0.21,0.2123,0.2134,0.215,0.2171,0.2191,0.2217,0.2235,0.2252,0.2271,0.2334,0.229,0.2446,0.2376,0.2457,0.2511,0.2525,0.2708,0.2732,0.3007,0.3154,0.3018,0.2732,0.273,0.2728,0,0.2027,0.2071,0.2091,0.2105,0.2138,0.2145,0.216,0.2186,0.2217,0.2253,0.2306,0.2342,0.2429,0.2476,0.2627,0.2538,0.2827,0.2714,0.2984,0.3004,0.3029,0.305,0.3063,0.2805,0.2804,0.2803,0.2802,0,0.2042,0.2054,0.208,0.2091,0.2108,0.2128,0.2155,0.2174,0.2227,0.231,0.2316,0.2433,0.2469,0.2641,0.2698,0.2985,0.2907,0.3045,0.3103,0.3045,0.3061,0.2976,0.2867,0.2817,0.2814,0.2811,0.2809,0,0.2043,0.2054,0.2078,0.2103,0.2106,0.2121,0.2175,0.2223,0.226,0.2382,0.2416,0.2562,0.2827,0.2933,0.3108,0.3166,0.3283,0.3442,0.3457,0.3509,0.36,0.3494,0.3499,0.3396,0.3802,0.3809,0.3815,0,0.207,0.2083,0.2093,0.2135,0.2156,0.2178,0.2227,0.2239,0.2322,0.2502,0.2604,0.2865,0.3106,0.3501,0.3636,0.3873,0.3599,0.3971,0.3753,0.367,0.359,0.3338,0.3225,0.3834,0.3839,0.3844,0.3847,0,0.2168,0.2156,0.219,0.2246,0.2293,0.2323,0.2394,0.2438,0.2522,0.2652,0.2923,0.3118,0.3525,0.3791,0.4097,0.4188,0.3786,0.4078,0.3918,0.3592,0.3383,0.3291,0.3612,0.3887,0.3883,0.388,0.3878,0.3877,0.2295,0.2325,0.2388,0.2425,0.2472,0.2529,0.2547,0.2661,0.2793,0.2984,0.3156,0.3443,0.3772,0.4221,0.4292,0.4358,0.4163,0.4228,0.4121,0.3885,0.3707,0.4219,0.4581,0.4581,0.4581,0.4581,0.4581,0,0.2518,0.2535,0.2594,0.2635,0.2685,0.2657,0.2727,0.2749,0.2917,0.313,0.335,0.3743,0.4042,0.4221,0.4438,0.4362,0.4064,0.4225,0.3755,0.3647,0.4074,0.3993,0.4329,0.4329,0.4329,0.4329,0.4329,0.4329,0.267,0.2757,0.2732,0.2848,0.2855,0.287,0.2883,0.2921,0.3028,0.3262,0.3458,0.3631,0.3913,0.4183,0.4204,0.4145,0.3741,0.3702,0.3545,0.3744,0.3728,0.3713,0.3606,0.3855,0.3855,0.2981,0.2974,0.2969]},{"header":{"parameterUnit":"m.s-1","parameterCategory":2,"la1":30.2991,"la2":30.254,"lo1":-89.0895,"lo2":-89.0444,"dy":0.0017,"dx":0.0017,"nx":28,"ny":28,"refTime":"2023-09-25T03:00:00:Z","depth":"0","parameterNumber":3,"parameterNumberName":"V-component_of_CURRENTS"},"data":[0,0,0,0,0,0,0,0,0,0,0,0,0,0,0,0,0,0,0,0,0,0,0,0,0,0,0,0,0,0,0,0,0,0,0,0,0,0,0,0,0,0,0,0,0,0,0,0,0,0,0,0,0,0,0,0,0,0,-0.1027,-0.1028,0,-0.1113,-0.1113,-0.1114,-0.1134,-0.1133,-0.1133,-0.1132,-0.1226,-0.1229,-0.1232,0,0,0,0,0,0,0,0,0,0,0,0,0,-0.0937,-0.0938,-0.1026,-0.1028,-0.1029,-0.1112,-0.1113,-0.1115,-0.1134,-0.1133,-0.1132,-0.1132,-0.1225,-0.1229,-0.1233,0,0,0,0,0,0,0,0,0,0,0,0,0,-0.0993,-0.0938,-0.1026,-0.1049,-0.1052,-0.1112,-0.1114,-0.1115,-0.1134,-0.1133,-0.1132,-0.1132,-0.1224,-0.1229,-0.1233,-0.1276,0,0,-0.1247,-0.1249,0,0,0,0,0,0,0,0,-0.099,-0.0996,-0.1045,-0.1048,-0.1051,-0.1112,-0.1117,-0.117,-0.1134,-0.1102,-0.1132,-0.1131,-0.119,-0.1198,-0.1214,-0.1281,-0.1285,-0.1247,-0.125,-0.1252,-0.1253,0,0,0,0,0,0,0,-0.0986,-0.0993,-0.106,-0.1046,-0.105,-0.1075,-0.1082,-0.1127,-0.1149,-0.1105,-0.1106,-0.1118,-0.1192,-0.1209,-0.1216,-0.1286,-0.1247,-0.1251,-0.1254,-0.1255,-0.1412,-0.1413,0,0,0,0,0,0,-0.0976,-0.0989,-0.1057,-0.1062,-0.1019,-0.1077,-0.1085,-0.1093,-0.1148,-0.1156,-0.1118,-0.1118,-0.1202,-0.1211,-0.122,-0.1286,-0.1252,-0.1256,-0.1258,-0.141,-0.1412,-0.1414,0,0,0,0,0,0,-0.0973,-0.0981,-0.1053,-0.1029,-0.104,-0.1079,-0.1089,-0.1095,-0.1115,-0.1159,-0.1166,-0.1132,-0.1202,-0.1213,-0.1272,-0.1289,-0.1258,-0.1262,-0.1409,-0.1411,-0.1413,-0.1412,0,0,0,0,0,0,-0.097,-0.0979,-0.0985,-0.1028,-0.1041,-0.1097,-0.109,-0.1097,-0.1124,-0.1125,-0.1174,-0.1181,-0.1202,-0.1265,-0.1276,-0.1295,-0.1266,-0.1407,-0.141,-0.1412,-0.141,-0.1414,-0.1417,0,0,0,0,0,-0.0967,-0.0982,-0.0984,-0.0993,-0.1046,-0.1098,-0.1108,-0.1132,-0.1125,-0.1145,-0.1177,-0.118,-0.129,-0.127,-0.1283,-0.1303,-0.1405,-0.1409,-0.1412,-0.1409,-0.1413,-0.1417,0,0,0,0,0,0,-0.0944,-0.0987,-0.099,-0.1016,-0.1055,-0.1102,-0.1125,-0.1136,-0.1177,-0.1178,-0.1205,-0.1217,-0.1272,-0.1295,-0.1272,-0.1358,-0.1346,-0.1352,-0.1339,-0.1344,-0.1347,-0.1298,-0.1269,0,0,0,0,0,-0.0941,-0.0965,-0.1007,-0.1029,-0.1048,-0.1085,-0.1108,-0.1127,-0.1167,-0.1183,-0.1215,-0.1254,-0.1298,-0.1324,-0.1366,-0.1419,-0.1378,-0.144,-0.1443,-0.1446,-0.1416,-0.1396,-0.1394,-0.1425,-0.1424,-0.1424,0,0,-0.0937,-0.0966,-0.0977,-0.1026,-0.1057,-0.1091,-0.1097,-0.114,-0.1163,-0.119,-0.1233,-0.127,-0.1315,-0.1371,-0.1397,-0.1391,-0.1412,-0.145,-0.1452,-0.142,-0.1399,-0.1396,-0.1392,-0.1427,-0.1426,-0.1426,0,0,-0.0952,-0.0968,-0.0996,-0.1028,-0.1079,-0.1105,-0.1115,-0.1166,-0.1182,-0.1235,-0.1255,-0.1298,-0.137,-0.1399,-0.1423,-0.1473,-0.143,-0.1495,-0.1474,-0.1457,-0.1452,-0.1448,-0.1362,-0.135,-0.1497,-0.1497,-0.1497,0,-0.0939,-0.0976,-0.1013,-0.1048,-0.1066,-0.1107,-0.1131,-0.1166,-0.1227,-0.1227,-0.1249,-0.1322,-0.1377,-0.1413,-0.144,-0.1477,-0.1432,-0.1453,-0.1456,-0.1452,-0.1447,-0.136,-0.1347,-0.1498,-0.1498,-0.1498,-0.1498,0,-0.0979,-0.1001,-0.1023,-0.1071,-0.1099,-0.1132,-0.1174,-0.1199,-0.122,-0.1239,-0.1274,-0.1341,-0.1366,-0.1413,-0.1449,-0.1456,-0.1418,-0.1459,-0.1434,-0.1443,-0.1352,-0.1338,-0.1498,-0.1498,-0.1498,-0.1498,0,0,-0.0955,-0.1031,-0.1034,-0.1039,-0.1106,-0.1122,-0.1163,-0.1189,-0.1167,-0.1242,-0.1206,-0.1326,-0.1328,-0.1355,-0.1402,-0.1409,-0.1362,-0.1422,-0.1421,-0.1311,-0.1256,-0.1156,-0.113,-0.14,-0.1398,-0.1397,-0.1191,0,-0.0964,-0.1007,-0.1052,-0.1073,-0.1086,-0.1122,-0.1137,-0.1163,-0.1176,-0.1156,-0.1213,-0.1207,-0.1316,-0.1303,-0.1342,-0.1338,-0.133,-0.1409,-0.1283,-0.1277,-0.1169,-0.1114,-0.1072,-0.0879,-0.1178,-0.1175,-0.1174,0,-0.0977,-0.1,-0.1017,-0.103,-0.1036,-0.1049,-0.1028,-0.1049,-0.1046,-0.1045,-0.1059,-0.1077,-0.1091,-0.1179,-0.1176,-0.1213,-0.1234,-0.1245,-0.1238,-0.1129,-0.1152,-0.0928,-0.0843,-0.1098,-0.1152,-0.1154,-0.1155,0,-0.0906,-0.0963,-0.096,-0.0972,-0.1005,-0.0992,-0.0998,-0.0999,-0.0949,-0.0936,-0.0854,-0.0922,-0.0857,-0.0941,-0.098,-0.1065,-0.093,-0.1051,-0.0973,-0.0963,-0.0891,-0.0877,-0.1014,-0.1044,-0.1044,-0.1045,-0.1045,0,-0.0874,-0.0858,-0.0917,-0.0904,-0.0853,-0.0914,-0.0831,-0.0841,-0.0789,-0.0658,-0.0764,-0.0632,-0.0791,-0.0743,-0.0869,-0.082,-0.0837,-0.0917,-0.09,-0.0887,-0.0877,-0.1066,-0.1218,-0.1037,-0.1039,-0.104,-0.1041,0,-0.0748,-0.0813,-0.078,-0.0811,-0.0806,-0.0749,-0.0683,-0.0598,-0.0589,-0.0403,-0.0366,-0.0343,-0.0267,-0.0396,-0.0446,-0.0585,-0.0702,-0.0611,-0.0543,-0.0524,-0.0734,-0.0884,-0.0864,-0.0961,-0.0493,-0.0489,-0.0486,0,-0.0671,-0.0653,-0.066,-0.0603,-0.0595,-0.0533,-0.0455,-0.0471,-0.0355,-0.0187,-0.0047,0.0062,0.0197,0.0171,-0.0049,-0.0176,-0.0473,-0.026,-0.0458,-0.0689,-0.0847,-0.0952,-0.1048,-0.0347,-0.0343,-0.034,-0.0337,0,-0.0476,-0.0486,-0.0447,-0.0364,-0.0284,-0.0193,-0.0091,0.0018,0.007,0.023,0.0482,0.0599,0.0598,0.0531,0.0329,0.0159,-0.0419,-0.0194,-0.0478,-0.0753,-0.0831,-0.0933,-0.0508,-0.0308,-0.031,-0.0313,-0.0314,-0.0315,-0.0275,-0.0207,-0.0171,-0.0082,0.0014,0.0156,0.0255,0.0394,0.0593,0.084,0.0909,0.115,0.0963,0.0714,0.0424,-0.0095,-0.0151,-0.0319,-0.047,-0.0547,-0.0689,-0.0149,0.0076,0.0076,0.0075,0.0074,0.0074,0,-0.0032,0.0003,0.0114,0.0218,0.0358,0.0329,0.0513,0.0622,0.0876,0.1168,0.1378,0.1536,0.1215,0.0781,0.0142,-0.0314,-0.0566,-0.0599,-0.0831,-0.0914,-0.0459,-0.0512,-0.0352,-0.0352,-0.0352,-0.0351,-0.0351,-0.0351,0.0107,0.0233,0.0242,0.0487,0.0567,0.073,0.0817,0.0999,0.1203,0.1605,0.1855,0.2016,0.1763,0.0463,-0.0524,-0.0789,-0.1193,-0.1174,-0.1404,-0.1228,-0.1219,-0.121,-0.1303,-0.131,-0.1312,-0.182,-0.1825,-0.1829]}],[{"header":{"parameterUnit":"m.s-1","parameterCategory":2,"la1":30.2991,"la2":30.254,"lo1":-89.0895,"lo2":-89.0444,"dy":0.0017,"dx":0.0017,"nx":28,"ny":28,"refTime":"2023-09-25T03:00:00:Z","depth":"2","parameterNumber":2,"parameterNumberName":"U-component_of_CURRENTS"},"data":[0,0,0,0,0,0,0,0,0,0,0,0,0,0,0,0,0,0,0,0,0,0,0,0,0,0,0,0,0,0,0,0,0,0,0,0,0,0,0,0,0,0,0,0,0,0,0,0,0,0,0,0,0,0,0,0,0,0,0.154,0.1541,0,0.1578,0.1579,0.1579,0.1574,0.1574,0.1573,0.1573,0.1556,0.1556,0.1556,0,0,0,0,0,0,0,0,0,0,0,0,0,0.1427,0.1429,0.154,0.1541,0.1541,0.1578,0.1579,0.1579,0.1574,0.1574,0.1573,0.1573,0.1556,0.1556,0.1556,0,0,0,0,0,0,0,0,0,0,0,0,0,0.147,0.1429,0.154,0.1545,0.1546,0.1578,0.1579,0.1579,0.1574,0.1574,0.1573,0.1573,0.1556,0.1556,0.1556,0.1568,0,0,0.1556,0.1556,0,0,0,0,0,0,0,0,0.1467,0.1474,0.1544,0.1545,0.1546,0.1573,0.1533,0.1574,0.1575,0.1561,0.1573,0.1572,0.1558,0.1558,0.1564,0.1567,0.1567,0.1556,0.1556,0.1556,0.1556,0,0,0,0,0,0,0,0.1464,0.1472,0.1553,0.1545,0.1546,0.1533,0.1539,0.154,0.156,0.1563,0.1563,0.1571,0.1558,0.1565,0.1564,0.1566,0.1556,0.1556,0.1555,0.1555,0.1562,0.1562,0,0,0,0,0,0,0.1467,0.1469,0.1552,0.1555,0.1507,0.1536,0.1542,0.1563,0.1562,0.1562,0.1571,0.157,0.1565,0.1564,0.1563,0.1575,0.1556,0.1555,0.1555,0.1562,0.1562,0.1562,0,0,0,0,0,0,0.1465,0.1474,0.155,0.1513,0.1522,0.1539,0.1563,0.1564,0.1573,0.1569,0.1568,0.1578,0.1565,0.1563,0.1569,0.1574,0.1555,0.1555,0.1562,0.1562,0.1562,0.1601,0,0,0,0,0,0,0.1461,0.1474,0.1489,0.1514,0.1525,0.1576,0.1563,0.1566,0.1579,0.1579,0.1575,0.1572,0.1564,0.1569,0.1569,0.1574,0.1555,0.1561,0.1562,0.1562,0.1599,0.1603,0.1605,0,0,0,0,0,0.1457,0.1482,0.149,0.15,0.1547,0.1577,0.1581,0.1588,0.158,0.1592,0.1586,0.1573,0.1571,0.157,0.1569,0.1574,0.1561,0.1562,0.1562,0.1598,0.1602,0.1605,0,0,0,0,0,0,0.1441,0.1485,0.1494,0.1532,0.1556,0.1577,0.1591,0.1593,0.1599,0.1594,0.1583,0.1581,0.1583,0.1576,0.1575,0.1576,0.1561,0.1562,0.1588,0.1592,0.1595,0.1572,0.1555,0,0,0,0,0,0.1447,0.148,0.1512,0.1544,0.1557,0.1574,0.1587,0.1592,0.1601,0.1603,0.1598,0.159,0.1586,0.1587,0.158,0.159,0.1625,0.159,0.1593,0.1596,0.1576,0.1617,0.1623,0.1564,0.1564,0.1564,0,0,0.145,0.148,0.1498,0.1543,0.1562,0.1579,0.158,0.1604,0.161,0.16,0.1604,0.16,0.1589,0.1595,0.1595,0.1591,0.165,0.1596,0.1599,0.1577,0.1618,0.1624,0.1629,0.1564,0.1564,0.1564,0,0,0.1466,0.15,0.1525,0.1545,0.1578,0.159,0.1598,0.1619,0.1621,0.1631,0.1619,0.1616,0.1617,0.1609,0.1604,0.1619,0.166,0.1622,0.1625,0.1667,0.1672,0.1677,0.1819,0.1835,0.1629,0.1629,0.1629,0,0.1463,0.1499,0.1536,0.1558,0.1565,0.1594,0.1601,0.1619,0.1635,0.1632,0.1633,0.1624,0.1617,0.1617,0.1619,0.1624,0.1691,0.1617,0.1672,0.1677,0.1681,0.1824,0.1842,0.1631,0.1631,0.1631,0.163,0,0.1492,0.1513,0.153,0.1565,0.1582,0.1597,0.162,0.1634,0.1636,0.1642,0.1641,0.1641,0.1635,0.1636,0.1631,0.1652,0.1712,0.1672,0.1667,0.169,0.184,0.1858,0.1634,0.1633,0.1633,0.1632,0,0,0.1485,0.1537,0.1535,0.1538,0.1577,0.1587,0.1609,0.1623,0.1637,0.1644,0.1657,0.1638,0.1643,0.1637,0.1641,0.1665,0.1783,0.1684,0.1685,0.1833,0.1967,0.1988,0.2012,0.176,0.1761,0.1762,0.2095,0,0.1482,0.1502,0.1534,0.154,0.1543,0.1573,0.1589,0.1608,0.1635,0.1666,0.1661,0.1683,0.1647,0.1668,0.1681,0.1759,0.1817,0.1701,0.1913,0.1921,0.1941,0.2025,0.179,0.2061,0.2112,0.2115,0.2118,0,0.1479,0.149,0.1489,0.1507,0.1512,0.1527,0.155,0.1576,0.163,0.1658,0.168,0.1707,0.1761,0.1718,0.1862,0.1801,0.1875,0.1928,0.1942,0.1942,0.197,0.2027,0.2092,0.2148,0.2146,0.2143,0.2141,0,0.1418,0.1447,0.1436,0.1443,0.1481,0.1485,0.1508,0.1558,0.1618,0.1676,0.1762,0.1782,0.1888,0.1915,0.2052,0.1969,0.2244,0.2147,0.2245,0.2254,0.2079,0.2067,0.2224,0.2223,0.2223,0.2222,0.2221,0,0.1383,0.1373,0.1408,0.1401,0.1416,0.144,0.149,0.1525,0.1626,0.1745,0.1765,0.1906,0.1941,0.2109,0.213,0.2306,0.2329,0.2273,0.2322,0.2097,0.2084,0.2137,0.2123,0.2234,0.2232,0.2229,0.2227,0,0.1329,0.1339,0.1347,0.1376,0.1393,0.1405,0.1525,0.1596,0.1678,0.1854,0.1899,0.2082,0.23,0.2379,0.2528,0.2489,0.2585,0.2633,0.2427,0.244,0.255,0.2534,0.2749,0.2752,0.2755,0.2757,0.2759,0,0.1309,0.1302,0.1345,0.1392,0.1417,0.1465,0.1539,0.1611,0.1731,0.199,0.2106,0.2362,0.2524,0.2784,0.2755,0.2835,0.2813,0.2669,0.2393,0.2569,0.2596,0.2575,0.2556,0.224,0.2238,0.2236,0.2234,0,0.1301,0.1318,0.1351,0.1425,0.1495,0.1576,0.1686,0.1766,0.1916,0.2069,0.232,0.2449,0.2714,0.2686,0.2799,0.2777,0.2606,0.2629,0.2887,0.2121,0.2108,0.2129,0.2123,0.2215,0.2217,0.2219,0.222,0.222,0.1332,0.1355,0.1409,0.1473,0.1572,0.1653,0.1673,0.1835,0.1962,0.2108,0.2318,0.2416,0.2505,0.2517,0.252,0.2505,0.2625,0.2443,0.2441,0.2443,0.2301,0.229,0.2414,0.2417,0.2419,0.2422,0.2424,0,0.1336,0.1373,0.1465,0.151,0.1583,0.1639,0.176,0.1756,0.1853,0.2035,0.2137,0.2006,0.2052,0.2176,0.211,0.2126,0.2004,0.2056,0.1847,0.1871,0.189,0.1708,0.1671,0.1668,0.1666,0.1664,0,0,0.134,0.1375,0.1394,0.1467,0.1531,0.1546,0.1567,0.1601,0.1685,0.1689,0.1718,0.1843,0.2057,0.1784,0.1796,0.1734,0.1769,0.1672,0.2278,0.2052,0.2067,0.2128,0.188,0,0,0,0,0]},{"header":{"parameterUnit":"m.s-1","parameterCategory":2,"la1":30.2991,"la2":30.254,"lo1":-89.0895,"lo2":-89.0444,"dy":0.0017,"dx":0.0017,"nx":28,"ny":28,"refTime":"2023-09-25T03:00:00:Z","depth":"2","parameterNumber":3,"parameterNumberName":"V-component_of_CURRENTS"},"data":[0,0,0,0,0,0,0,0,0,0,0,0,0,0,0,0,0,0,0,0,0,0,0,0,0,0,0,0,0,0,0,0,0,0,0,0,0,0,0,0,0,0,0,0,0,0,0,0,0,0,0,0,0,0,0,0,0,0,-0.0059,-0.006,0,-0.0137,-0.0137,-0.0138,-0.0202,-0.0203,-0.0203,-0.0204,-0.0308,-0.031,-0.0313,0,0,0,0,0,0,0,0,0,0,0,0,0,-0.0003,-0.0004,-0.0059,-0.006,-0.0061,-0.0136,-0.0137,-0.0138,-0.0202,-0.0203,-0.0203,-0.0204,-0.0308,-0.031,-0.0313,0,0,0,0,0,0,0,0,0,0,0,0,0,-0.0048,-0.0004,-0.0059,-0.0102,-0.0106,-0.0136,-0.0137,-0.0139,-0.0202,-0.0203,-0.0204,-0.0205,-0.0307,-0.031,-0.0313,-0.0313,0,0,-0.0323,-0.0324,0,0,0,0,0,0,0,0,-0.0046,-0.005,-0.0095,-0.0099,-0.0104,-0.0161,-0.0156,-0.0198,-0.0201,-0.0165,-0.0204,-0.0205,-0.0261,-0.0268,-0.028,-0.0317,-0.0322,-0.0323,-0.0325,-0.0327,-0.0327,0,0,0,0,0,0,0,-0.0042,-0.0048,-0.009,-0.0095,-0.0101,-0.013,-0.0137,-0.0164,-0.0207,-0.0169,-0.0173,-0.0182,-0.0264,-0.0276,-0.0283,-0.0324,-0.0323,-0.0326,-0.0328,-0.0329,-0.0428,-0.0428,0,0,0,0,0,0,-0.003,-0.0044,-0.0087,-0.0092,-0.0077,-0.013,-0.0138,-0.0141,-0.0206,-0.0217,-0.0181,-0.0185,-0.027,-0.0279,-0.0287,-0.0335,-0.0327,-0.033,-0.0331,-0.0427,-0.0428,-0.0428,0,0,0,0,0,0,-0.0028,-0.0033,-0.0084,-0.007,-0.0079,-0.0129,-0.0133,-0.0142,-0.0171,-0.0215,-0.0227,-0.0202,-0.0271,-0.0282,-0.0324,-0.0338,-0.0331,-0.0334,-0.0426,-0.0427,-0.0428,-0.0402,0,0,0,0,0,0,-0.0026,-0.0032,-0.0035,-0.0069,-0.0079,-0.0102,-0.0132,-0.0143,-0.0174,-0.018,-0.0236,-0.0246,-0.0273,-0.0319,-0.0327,-0.0342,-0.0336,-0.0425,-0.0427,-0.0428,-0.0402,-0.0402,-0.0402,0,0,0,0,0,-0.0024,-0.0018,-0.0034,-0.004,-0.008,-0.0101,-0.0109,-0.0149,-0.0174,-0.018,-0.0225,-0.0245,-0.0333,-0.0322,-0.0331,-0.0347,-0.0425,-0.0426,-0.0428,-0.0402,-0.0402,-0.0402,0,0,0,0,0,0,0.0004,-0.0025,-0.0044,-0.0048,-0.0074,-0.0112,-0.0126,-0.0152,-0.0192,-0.0209,-0.025,-0.0263,-0.0306,-0.0329,-0.0316,-0.0381,-0.0384,-0.0387,-0.0361,-0.0361,-0.0361,-0.0338,-0.0339,0,0,0,0,0,0.001,0.0003,-0.0028,-0.0035,-0.0047,-0.0089,-0.0107,-0.0134,-0.0172,-0.0192,-0.0235,-0.0281,-0.0316,-0.0341,-0.0375,-0.0406,-0.042,-0.0425,-0.0425,-0.0425,-0.0413,-0.0456,-0.0458,-0.0434,-0.0434,-0.0433,0,0,0.0017,-0.0,-0.0006,-0.003,-0.0058,-0.0064,-0.0103,-0.0131,-0.0143,-0.0196,-0.0237,-0.0282,-0.0324,-0.0363,-0.0385,-0.0386,-0.0437,-0.0427,-0.0426,-0.0414,-0.0458,-0.046,-0.0462,-0.0435,-0.0434,-0.0434,0,0,0.0038,0.0012,0.0018,0.0001,-0.0036,-0.0059,-0.0067,-0.0114,-0.0145,-0.0186,-0.0228,-0.0276,-0.0338,-0.0366,-0.0387,-0.0405,-0.0435,-0.0431,-0.0413,-0.0455,-0.0457,-0.0459,-0.0466,-0.0469,-0.0432,-0.0432,-0.0432,0,0.0045,0.0051,0.0015,0.0018,0.0006,-0.0052,-0.0048,-0.008,-0.0139,-0.0162,-0.0198,-0.0292,-0.0333,-0.0364,-0.0381,-0.0403,-0.0427,-0.0408,-0.0454,-0.0456,-0.0459,-0.0466,-0.0469,-0.0431,-0.0431,-0.0431,-0.0431,0,0.0079,0.0076,0.0075,0.0061,0.0046,0.0034,-0.0008,-0.0041,-0.0095,-0.0132,-0.0194,-0.0259,-0.0315,-0.0342,-0.0372,-0.041,-0.042,-0.0447,-0.0448,-0.0459,-0.0466,-0.047,-0.0429,-0.043,-0.043,-0.043,0,0,0.0104,0.0102,0.0096,0.0099,0.0065,0.0055,0.0033,0.0,-0.0016,-0.0099,-0.0123,-0.0209,-0.0265,-0.0292,-0.0344,-0.0383,-0.0425,-0.0428,-0.0431,-0.0424,-0.0503,-0.0491,-0.0494,-0.0473,-0.0474,-0.0475,-0.0495,0,0.0134,0.016,0.0145,0.0154,0.0161,0.0112,0.0103,0.006,0.0005,-0.0035,-0.0118,-0.0167,-0.0239,-0.0277,-0.0332,-0.0396,-0.0438,-0.0415,-0.0503,-0.0504,-0.0484,-0.0499,-0.0475,-0.0491,-0.0499,-0.05,-0.0501,0,0.0167,0.0181,0.0202,0.0203,0.02,0.019,0.0156,0.0139,0.0077,0.0037,-0.0035,-0.0104,-0.0175,-0.0241,-0.0358,-0.0348,-0.0427,-0.0478,-0.0481,-0.0479,-0.05,-0.0487,-0.0498,-0.0507,-0.0507,-0.0506,-0.0506,0,0.0197,0.0214,0.0231,0.0229,0.0224,0.0209,0.0192,0.0146,0.0148,0.0073,0.0075,-0.0044,-0.0077,-0.0211,-0.0329,-0.036,-0.0439,-0.0492,-0.0547,-0.0546,-0.0543,-0.0541,-0.0578,-0.0578,-0.0578,-0.0578,-0.0578,0,0.0232,0.0236,0.0239,0.0243,0.0256,0.0233,0.0235,0.0204,0.019,0.0232,0.0103,0.0132,-0.0077,-0.0148,-0.0294,-0.0413,-0.0418,-0.0536,-0.0556,-0.0532,-0.0528,-0.0561,-0.0559,-0.0579,-0.0579,-0.0579,-0.0579,0,0.0234,0.0247,0.026,0.0262,0.0265,0.0257,0.0277,0.03,0.0276,0.0331,0.0318,0.0261,0.0176,-0.001,-0.0186,-0.0329,-0.0467,-0.051,-0.0447,-0.0461,-0.0557,-0.0554,-0.0591,-0.0591,-0.0591,-0.0591,-0.0591,0,0.0229,0.024,0.0261,0.0284,0.0274,0.0283,0.0318,0.0322,0.0382,0.0447,0.0506,0.0438,0.0435,0.0183,-0.0101,-0.0353,-0.0398,-0.0488,-0.0555,-0.0546,-0.0562,-0.0558,-0.0555,-0.0535,-0.0535,-0.0535,-0.0534,0,0.0209,0.0211,0.0232,0.0296,0.0331,0.0401,0.0459,0.0538,0.06,0.0679,0.0815,0.0814,0.0571,0.0316,-0.0058,-0.0223,-0.046,-0.0487,-0.0499,-0.0533,-0.0495,-0.051,-0.0508,-0.053,-0.0531,-0.0531,-0.0531,-0.0531,0.0176,0.0201,0.0253,0.0319,0.0387,0.0535,0.0643,0.0762,0.0914,0.1045,0.1021,0.1012,0.0689,0.0208,-0.0075,-0.0391,-0.0407,-0.0537,-0.0538,-0.0539,-0.0527,-0.049,-0.052,-0.0521,-0.0521,-0.0521,-0.0521,0,0.0178,0.0236,0.029,0.0411,0.0538,0.0571,0.077,0.0915,0.116,0.1176,0.124,0.0936,0.0634,0.0293,-0.0187,-0.0474,-0.0499,-0.0534,-0.0529,-0.0531,-0.0533,-0.052,-0.0512,-0.0513,-0.0513,-0.0514,0,0,0.0186,0.0271,0.0335,0.0548,0.0651,0.0879,0.1036,0.1226,0.1302,0.1334,0.1266,0.1094,0.0704,0.0353,-0.0026,-0.0269,-0.0324,-0.0298,-0.028,-0.0232,-0.023,-0.0513,-0.0493,0,0,0,0,0]}],[{"header":{"parameterUnit":"m.s-1","parameterCategory":2,"la1":30.2991,"la2":30.254,"lo1":-89.0895,"lo2":-89.0444,"dy":0.0017,"dx":0.0017,"nx":28,"ny":28,"refTime":"2023-09-25T03:00:00:Z","depth":"4","parameterNumber":2,"parameterNumberName":"U-component_of_CURRENTS"},"data":[0,0,0,0,0,0,0,0,0,0,0,0,0,0,0,0,0,0,0,0,0,0,0,0,0,0,0,0,0,0,0,0,0,0,0,0,0,0,0,0,0,0,0,0,0,0,0,0,0,0,0,0,0,0,0,0,0,0,0.075,0.075,0,0.0794,0.0795,0.0795,0.083,0.0831,0.0831,0.0832,0.0892,0.0894,0.0895,0,0,0,0,0,0,0,0,0,0,0,0,0,0.0686,0.0687,0.075,0.075,0.0751,0.0794,0.0795,0.0795,0.083,0.0831,0.0831,0.0832,0.0892,0.0893,0.0895,0,0,0,0,0,0,0,0,0,0,0,0,0,0.0718,0.0687,0.075,0.0775,0.0778,0.0794,0.0795,0.0795,0.083,0.0831,0.0831,0.0832,0.0892,0.0893,0.0895,0.089,0,0,0.09,0.0901,0,0,0,0,0,0,0,0,0.0717,0.0721,0.0771,0.0774,0.0777,0.0809,0.0795,0.0828,0.083,0.0808,0.0832,0.0833,0.0867,0.087,0.0874,0.0893,0.0895,0.09,0.0901,0.0902,0.0902,0,0,0,0,0,0,0,0.0714,0.0719,0.0765,0.0771,0.0775,0.0782,0.0787,0.0801,0.0831,0.081,0.0813,0.0821,0.0868,0.0872,0.0876,0.0896,0.09,0.0902,0.0903,0.0903,0.1009,0.1011,0,0,0,0,0,0,0.0712,0.0717,0.0764,0.0767,0.075,0.0782,0.0788,0.0796,0.0831,0.0837,0.082,0.0823,0.0869,0.0874,0.0878,0.0951,0.0902,0.0904,0.0905,0.1007,0.1009,0.1011,0,0,0,0,0,0,0.0711,0.0716,0.0762,0.0744,0.0751,0.0783,0.0792,0.0797,0.0825,0.0839,0.0845,0.0845,0.087,0.0876,0.0918,0.0951,0.0904,0.0906,0.1005,0.1008,0.101,0.1048,0,0,0,0,0,0,0.0709,0.0715,0.0728,0.0744,0.0752,0.0788,0.0791,0.0797,0.0828,0.0831,0.0862,0.0867,0.0871,0.0916,0.092,0.0952,0.0907,0.1003,0.1006,0.1009,0.1044,0.1051,0.1057,0,0,0,0,0,0.0706,0.0717,0.0728,0.0735,0.0766,0.0789,0.0794,0.0817,0.0828,0.0844,0.0871,0.0867,0.094,0.0918,0.0923,0.0957,0.1001,0.1005,0.1009,0.1041,0.105,0.1057,0,0,0,0,0,0,0.0695,0.0722,0.0735,0.0754,0.0779,0.0796,0.0813,0.0829,0.0861,0.0871,0.0884,0.0891,0.0944,0.0946,0.0921,0.0999,0.0973,0.0978,0.0996,0.1004,0.101,0.1021,0.0909,0,0,0,0,0,0.0698,0.0715,0.0742,0.0759,0.0772,0.0797,0.0813,0.0831,0.0857,0.0872,0.0897,0.0927,0.0959,0.0978,0.1003,0.1038,0.1043,0.1067,0.1073,0.1079,0.1093,0.1121,0.1131,0.1024,0.1024,0.1024,0,0,0.0698,0.0716,0.0726,0.0759,0.0778,0.0804,0.0809,0.0839,0.087,0.0873,0.0927,0.0951,0.0975,0.1022,0.1045,0.1029,0.1112,0.1084,0.1088,0.1099,0.1126,0.1136,0.1145,0.1027,0.1027,0.1026,0,0,0.0699,0.0724,0.0738,0.0763,0.08,0.0819,0.0834,0.0869,0.0897,0.0944,0.0963,0.1008,0.1049,0.1078,0.1094,0.1153,0.1148,0.1166,0.1205,0.1232,0.1241,0.1249,0.1266,0.1275,0.1166,0.1167,0.1167,0,0.07,0.0724,0.0746,0.077,0.0797,0.083,0.0857,0.0888,0.0937,0.0965,0.097,0.1057,0.1076,0.1138,0.1167,0.1168,0.118,0.1168,0.124,0.1247,0.1254,0.127,0.1279,0.1169,0.1169,0.1168,0.1168,0,0.0707,0.074,0.0752,0.0796,0.0826,0.0857,0.0902,0.0942,0.098,0.1011,0.1086,0.1119,0.1171,0.1189,0.1199,0.127,0.1261,0.1243,0.1214,0.1267,0.1281,0.129,0.1172,0.1171,0.1171,0.117,0,0,0.0676,0.0744,0.0752,0.0783,0.0847,0.087,0.0929,0.0988,0.1032,0.1088,0.1146,0.1215,0.124,0.1263,0.1285,0.1319,0.1381,0.1312,0.1313,0.1321,0.1442,0.1378,0.1381,0.1376,0.1377,0.1379,0.1429,0,0.068,0.0728,0.0765,0.0822,0.0854,0.091,0.0961,0.1021,0.1075,0.1139,0.1193,0.1257,0.1265,0.1302,0.1339,0.1378,0.1408,0.1369,0.1398,0.1399,0.1328,0.1391,0.1385,0.1436,0.1438,0.1439,0.144,0,0.0674,0.0713,0.0765,0.0847,0.0866,0.0906,0.0996,0.1047,0.1139,0.1185,0.1256,0.1298,0.1382,0.1368,0.1457,0.1434,0.1449,0.1466,0.1467,0.1403,0.1352,0.1374,0.1456,0.1455,0.1454,0.1453,0.1452,0,0.0636,0.0714,0.0758,0.0786,0.0877,0.0917,0.0971,0.1061,0.1123,0.1221,0.1281,0.1359,0.1424,0.1458,0.1511,0.1491,0.159,0.1552,0.1504,0.1499,0.1521,0.1512,0.1602,0.1602,0.1602,0.1602,0.1602,0,0.0622,0.0658,0.0747,0.077,0.0832,0.0902,0.0979,0.1042,0.1152,0.1226,0.1306,0.1376,0.1455,0.152,0.1534,0.1559,0.1606,0.1531,0.1516,0.1535,0.1528,0.1527,0.1517,0.1604,0.1603,0.1603,0.1603,0,0.0568,0.0628,0.0679,0.0777,0.0814,0.0855,0.0986,0.1037,0.1152,0.1254,0.1296,0.1421,0.1504,0.1566,0.163,0.1594,0.1613,0.1602,0.1635,0.1618,0.1492,0.1485,0.1546,0.1544,0.1543,0.1542,0.1541,0,0.0542,0.0563,0.0666,0.0702,0.0749,0.0831,0.0887,0.1018,0.1076,0.1268,0.1301,0.1441,0.1508,0.1552,0.1609,0.1633,0.1614,0.1603,0.1539,0.1512,0.1491,0.1486,0.148,0.1539,0.1538,0.1538,0.1538,0,0.0486,0.0524,0.0567,0.0647,0.0709,0.0776,0.0867,0.0917,0.1068,0.1187,0.1294,0.1367,0.1461,0.151,0.1554,0.1559,0.1598,0.1588,0.1589,0.1529,0.1503,0.1483,0.1479,0.1533,0.1533,0.1534,0.1534,0,0.0437,0.0451,0.0519,0.0585,0.0657,0.0707,0.0768,0.0858,0.0948,0.1157,0.1183,0.1333,0.1443,0.1474,0.1506,0.1524,0.1494,0.143,0.1439,0.1445,0.1392,0.1342,0.1327,0,0,0,0,0,0.039,0.041,0.046,0.0532,0.0599,0.0648,0.075,0.0815,0.0964,0.1011,0.1106,0.119,0.129,0.1354,0.1353,0.1453,0.1486,0.1444,0.1412,0.1506,0.1512,0.1459,0,0,0,0,0,0,0.0358,0.0397,0.0434,0.0479,0.0518,0.0587,0.0648,0.0747,0.078,0.0937,0.0989,0.1113,0.121,0.1279,0.1328,0.1349,0.1305,0.1534,0.1531,0.1503,0.1508,0.1512,0.1461,0,0,0,0,0]},{"header":{"parameterUnit":"m.s-1","parameterCategory":2,"la1":30.2991,"la2":30.254,"lo1":-89.0895,"lo2":-89.0444,"dy":0.0017,"dx":0.0017,"nx":28,"ny":28,"refTime":"2023-09-25T03:00:00:Z","depth":"4","parameterNumber":3,"parameterNumberName":"V-component_of_CURRENTS"},"data":[0,0,0,0,0,0,0,0,0,0,0,0,0,0,0,0,0,0,0,0,0,0,0,0,0,0,0,0,0,0,0,0,0,0,0,0,0,0,0,0,0,0,0,0,0,0,0,0,0,0,0,0,0,0,0,0,0,0,0.0434,0.0434,0,0.0428,0.0427,0.0427,0.0407,0.0406,0.0406,0.0405,0.0371,0.037,0.037,0,0,0,0,0,0,0,0,0,0,0,0,0,0.0398,0.0399,0.0434,0.0434,0.0434,0.0428,0.0427,0.0427,0.0407,0.0406,0.0406,0.0405,0.0371,0.037,0.037,0,0,0,0,0,0,0,0,0,0,0,0,0,0.0404,0.0399,0.0434,0.0423,0.0422,0.0428,0.0427,0.0427,0.0407,0.0406,0.0406,0.0405,0.0371,0.037,0.037,0.0377,0,0,0.0367,0.0367,0,0,0,0,0,0,0,0,0.0404,0.0405,0.0425,0.0424,0.0423,0.0418,0.0402,0.0409,0.0407,0.0412,0.0405,0.0405,0.0385,0.0383,0.0383,0.0376,0.0374,0.0367,0.0367,0.0366,0.0366,0,0,0,0,0,0,0,0.0403,0.0405,0.0431,0.0425,0.0424,0.0408,0.0409,0.0403,0.0401,0.0412,0.041,0.0411,0.0384,0.0383,0.0382,0.0374,0.0367,0.0366,0.0366,0.0366,0.0362,0.0362,0,0,0,0,0,0,0.0408,0.0405,0.0431,0.0431,0.0412,0.041,0.041,0.042,0.0402,0.0399,0.0411,0.041,0.0385,0.0383,0.038,0.0399,0.0366,0.0366,0.0365,0.0362,0.0362,0.0362,0,0,0,0,0,0,0.0407,0.0411,0.0431,0.0417,0.0419,0.0411,0.0422,0.042,0.0425,0.0402,0.0398,0.0419,0.0385,0.0381,0.0387,0.0397,0.0365,0.0364,0.0361,0.0362,0.0362,0.043,0,0,0,0,0,0,0.0406,0.0411,0.0424,0.0418,0.042,0.0447,0.0422,0.042,0.0426,0.0424,0.0407,0.0403,0.0384,0.0389,0.0386,0.0396,0.0364,0.0361,0.0361,0.0362,0.0428,0.0433,0.0438,0,0,0,0,0,0.0405,0.0432,0.0425,0.0428,0.0438,0.0448,0.0448,0.0439,0.0427,0.0439,0.0426,0.0403,0.0391,0.0389,0.0386,0.0395,0.036,0.0361,0.0362,0.0425,0.0432,0.0438,0,0,0,0,0,0,0.0427,0.0433,0.0424,0.0452,0.0453,0.0445,0.046,0.0447,0.0447,0.0447,0.0418,0.0414,0.042,0.0399,0.0398,0.0394,0.0368,0.0368,0.0417,0.0423,0.0428,0.0416,0.0363,0,0,0,0,0,0.0437,0.0459,0.0454,0.0478,0.0481,0.047,0.0474,0.0468,0.0464,0.0463,0.0451,0.0433,0.0421,0.0417,0.0406,0.0412,0.0361,0.0411,0.0416,0.0421,0.0408,0.0349,0.0348,0.0365,0.0365,0.0365,0,0,0.0453,0.0459,0.0472,0.0484,0.0484,0.0496,0.0472,0.0488,0.0494,0.046,0.0473,0.0457,0.0427,0.0432,0.0431,0.0417,0.039,0.0422,0.0426,0.041,0.035,0.0348,0.0346,0.0366,0.0366,0.0366,0,0,0.0492,0.0501,0.0527,0.0529,0.0536,0.0529,0.0536,0.0534,0.0531,0.0541,0.0513,0.0501,0.0493,0.0468,0.0454,0.0479,0.0421,0.0478,0.0495,0.0439,0.0437,0.0435,0.0371,0.0362,0.0479,0.0479,0.0479,0,0.0506,0.0534,0.0536,0.0555,0.0556,0.0545,0.0561,0.0563,0.0563,0.0554,0.0554,0.0518,0.0503,0.0482,0.0493,0.0489,0.0445,0.0479,0.0446,0.0442,0.0438,0.0373,0.0362,0.0483,0.0482,0.0482,0.0482,0,0.0554,0.0573,0.0591,0.0606,0.0613,0.0629,0.0623,0.063,0.0623,0.0609,0.0595,0.0574,0.0541,0.0542,0.0529,0.0497,0.0471,0.0462,0.0431,0.044,0.0371,0.0359,0.0487,0.0486,0.0485,0.0484,0,0,0.0583,0.0615,0.062,0.0624,0.0636,0.0643,0.0659,0.0653,0.0646,0.0645,0.0623,0.061,0.0585,0.0565,0.0543,0.0503,0.045,0.0478,0.0474,0.0416,0.0316,0.0282,0.0264,0.0438,0.0437,0.0435,0.0281,0,0.0609,0.0647,0.0658,0.0684,0.0693,0.0686,0.0698,0.0692,0.0678,0.066,0.0625,0.0604,0.0597,0.0582,0.0543,0.0471,0.042,0.0492,0.0314,0.0308,0.0277,0.025,0.043,0.0271,0.0268,0.0266,0.0264,0,0.0638,0.0657,0.0688,0.0701,0.0706,0.0724,0.0715,0.0723,0.0695,0.0682,0.0648,0.0615,0.0561,0.0556,0.0425,0.0472,0.0396,0.034,0.0333,0.0263,0.025,0.0257,0.0241,0.0243,0.0245,0.0246,0.0248,0,0.0632,0.0671,0.0692,0.0699,0.072,0.073,0.0739,0.0726,0.0725,0.0687,0.0668,0.0602,0.0556,0.0466,0.0355,0.0385,0.0196,0.0218,0.0108,0.0104,0.0153,0.0157,0.0108,0.0108,0.0109,0.0109,0.0109,0,0.0634,0.0649,0.0695,0.0703,0.0726,0.0738,0.0751,0.0746,0.0735,0.072,0.0677,0.0632,0.0531,0.0419,0.0332,0.0168,0.0167,0.0089,0.0056,0.0187,0.0196,0.0144,0.015,0.0103,0.0104,0.0106,0.0107,0,0.0607,0.064,0.0665,0.0705,0.0722,0.0735,0.0772,0.0773,0.0763,0.0736,0.0723,0.0633,0.0484,0.0362,0.0187,0.0122,-0.0017,-0.0078,0.0048,0.0028,-0.0064,-0.0053,-0.0211,-0.0214,-0.0216,-0.0218,-0.0219,0,0.0589,0.0603,0.0664,0.0685,0.0706,0.074,0.0762,0.0783,0.0781,0.0727,0.0702,0.0564,0.0487,0.0209,0.009,-0.0111,-0.0124,-0.0197,-0.0105,-0.0084,-0.01,-0.0085,-0.0071,-0.0223,-0.0223,-0.0224,-0.0225,0,0.0548,0.0581,0.0606,0.0657,0.0694,0.0731,0.0762,0.0767,0.0771,0.0767,0.0664,0.0536,0.0352,0.0179,0.0006,-0.0123,-0.0142,-0.022,-0.0215,-0.0129,-0.01,-0.0111,-0.0094,-0.0232,-0.0231,-0.0231,-0.023,0,0.0516,0.0529,0.0576,0.0616,0.0668,0.0702,0.0729,0.0726,0.073,0.0691,0.0645,0.0481,0.0392,0.0167,0.0012,-0.0128,-0.0137,-0.0145,-0.0144,-0.0137,-0.0055,-0.0003,-0.0155,0,0,0,0,0,0.0474,0.0492,0.0528,0.0576,0.0632,0.0662,0.0715,0.074,0.0753,0.0683,0.0672,0.0508,0.0275,0.017,0.0021,-0.0026,-0.0165,-0.0203,-0.0174,-0.0276,-0.0267,-0.0184,0,0,0,0,0,0,0.0447,0.0479,0.0509,0.0539,0.0565,0.0619,0.0657,0.0672,0.0639,0.0635,0.0509,0.0469,0.0237,0.0346,0.001,-0.0032,-0.0031,-0.0307,-0.0309,-0.0281,-0.0273,-0.0265,-0.0177,0,0,0,0,0]}]]